Powrót do katalogu

COSMOS 2251 DEB

LostLEO
NORAD 37963·DEBRIS·🇷🇺 Russia

Wystrzelony Jun 16, 1993 z Plesetsk Cosmodrome

Loading…

Następne Przeloty (najbliższe 24 godziny)

TLE

NieaktualneSource: Space-Track

Epoka: Apr 26, 2012, 12:58 UTC

1 37963U 93036BPN 12117.54070801  .00001501  00000-0  87977-3 0  9994
2 37963  74.0630 148.5575 0162942 322.7879 194.0245 14.02668937105431

Śledź COSMOS 2251 DEB w czasie rzeczywistym z AllMySat

Download on the App Store